GPS BIIR-12 (PRN 23)

Last updated on Mon Jun 01 2020 05:09:54 GMT+0000 (Coordinated Universal Time)

1 28361U 04023A 20151.35674358 .00000089 00000-0 00000-0 0 9996 2 28361 54.0631 176.1806 0144104 235.4258 120.3242 2.00392649116730
UTC large
Height (km)
Speed (km/s)
/
Latitude / Longitude
Inclination (degrees)
Orbital Period (minutes)
Azimuth
Elevation
Range (km)
Doppler Factor

Next 0 passes for location: London (51.5072 / 0.1276)

Sorry there are no passes over London.